Location: Hermaringen
(48.5952°N, 10.2585°E)
Time: 15:41:15
(UTC+00:00)

Explorer 7 - Pass Details

Date: 18 February 2026
Orbit: 430 x 541 km, 50.2° (Epoch: 8 March)

Event Time Altitude Azimuth Distance (km) Brightness Sun altitude
Rises 19:45:08 0° 287° (WNW) 2,549 11.4 -30.1°
Reaches altitude 10° 19:47:24 10° 278° (W) 1,688 10.2 -30.5°
Enters shadow 19:48:45 19° 266° (W) 1,226 9.2 -30.7°
